• Join FlightAware (Why Join?)
  • Login
  • US Flag 
10:21AM EDT


 

Airport Tracker/Info


-or-


 

Live Flight TrackerFlight Track Log ✈ UAL4193 ✈ 25-Apr-2013 ✈ KGRB - KMSP

Flight Track Log - Related Links

Times and Time Zones

All times are in EDT time to prevent confusion due to time zone crossing. See the UAL4193 flight status page for this flight to view local times or setup timezone preferences in your user account.

Time Position Orientation Groundspeed Altitude Reporting Facility
EDT Latitude Longitude Course Direction KTS MPH feet Rate Location/Type
07:45PM 44.4742 -88.3036 300° West 243 280 7,300  Level Minneapolis Center
07:46PM 44.5072 -88.3875 299° West 247 284 10,100 2,220 Climbing Minneapolis Center
07:47PM 44.5486 -88.5011 297° West 279 321 12,000 1,680 Climbing Minneapolis Center
07:48PM 44.5630 -88.7273 287° West  Level FlightAware Approximate
07:48PM 44.5894 -88.6081 298° West 305 351 13,600  Level Minneapolis Center
07:49PM 44.5886 -88.8465 287° West  Level FlightAware Approximate
07:49PM 44.6175 -88.7300 288° West 326 375 15,200  Level Minneapolis Center
07:50PM 44.6322 -88.8564 279° West 330 380 16,600 1,200 Climbing Minneapolis Center
07:51PM 44.6447 -88.9647 279° West 335 386 17,800 1,500 Climbing Minneapolis Center
07:52PM 44.6639 -89.1372 279° West 336 387 19,800 1,560 Climbing Minneapolis Center
07:53PM 44.6781 -89.2678 279° West 338 389 21,100 1,080 Climbing Minneapolis Center
07:54PM 44.6931 -89.4014 279° West 345 397 22,100 960 Climbing Minneapolis Center
07:55PM 44.7078 -89.5397 279° West 354 407 23,100 900 Climbing Minneapolis Center
07:56PM 44.7228 -89.6789 279° West 359 413 24,000 420 Climbing Minneapolis Center
07:57PM 44.7403 -89.8225 280° West 370 426 24,000  Level Minneapolis Center
07:58PM 44.7639 -89.9956 281° West 383 441 24,000  Level Minneapolis Center
07:59PM 44.7844 -90.1447 281° West 387 445 24,000  Level Minneapolis Center
08:00PM 44.8028 -90.2928 280° West 386 444 24,000  Level Minneapolis Center
08:01PM 44.8236 -90.4439 281° West 390 449 24,000  Level Minneapolis Center
08:02PM 44.8444 -90.6106 280° West 389 448 24,000  Level Minneapolis Center
08:03PM 44.8642 -90.7619 280° West 392 451 24,000  Level Minneapolis Center
08:04PM 44.8858 -90.9303 280° West 395 455 24,000  Level Minneapolis Center
08:05PM 44.9058 -91.0881 280° West 394 453 24,000  Level Minneapolis Center
08:06PM 44.9242 -91.2453 279° West 390 449 24,000  Level Minneapolis Center
08:07PM 44.9419 -91.3922 280° West 394 453 24,000 -660 Level Minneapolis Center
08:08PM 44.9617 -91.5489 280° West 390 449 22,700 -1,800 Descending Minneapolis Center
08:09PM 44.9803 -91.6914 281° West 378 435 20,400 -2,400 Descending Minneapolis Center
08:10PM 44.9967 -91.8353 279° West 372 428 17,800 -2,400 Descending Minneapolis Center
08:11PM 45.0133 -91.9683 280° West 349 402 15,500 -2,640 Descending Minneapolis Center
08:12PM 45.0289 -92.1208 278° West 329 379 12,400 -2,220 Descending Minneapolis Center
08:13PM 45.0447 -92.2467 280° West 327 376 11,000 -720 Descending Minneapolis Center
08:15PM 45.0361 -92.3708 264° West 330 380 11,000  Level Minneapolis Center
08:16PM 45.0169 -92.4967 258° West 331 381 11,000  Level Minneapolis Center
08:17PM 44.9967 -92.6197 257° West 325 374 11,000  Level Minneapolis Center
08:18PM 44.9769 -92.7458 258° West 330 380 11,000 -420 Level Minneapolis Center
08:19PM 44.9567 -92.8708 257° West 259 298 10,200 -1,260 Descending Minneapolis Center
08:20PM 44.9408 -92.9656 257° West 249 287 8,500 -1,080 Descending Minneapolis Center
08:21PM 44.9272 -93.0511 257° West 230 265 8,000 -300 Descending Minneapolis Center
08:22PM 44.9597 -93.1261 302° West 229 264 7,900 -780 Descending Minneapolis Center
08:23PM 44.9956 -93.2006 304° West 232 267 6,400 -1,620 Descending Minneapolis Center
08:24PM 45.0386 -93.2869 305° West 226 260 4,300 -1,080 Descending Minneapolis Center
08:25PM 45.0086 -93.3603 240° Southwest 203 234 4,000 -660 Descending Minneapolis Center
08:26PM 44.9600 -93.3367 161° South 185 213 3,000 -840 Descending Minneapolis Center
08:27PM 44.9311 -93.3069 144° Southeast 137 158 2,300 -720 Descending Minneapolis Center
08:28PM 44.9103 -93.2600 122° Southeast 141 162 1,600 -720 Descending Minneapolis Center
08:30PM 44.8820 -93.2218 205° Southwest  Level Estimated
08:37PM 44.8820 -93.2218 205° Southwest  Level Estimated